sat.trackr.live / text

‹ back to catalog

STARLINK-30227

NORAD 57505 · 2023-113L

PAYLOAD ACTIVE UNKNOWN

§ Identity

Operator
Country
US
Launch date
2023-08-07
Launch site
AFETR
Launch vehicle
Mass (kg)
RCS (m²)

Purposes: comms

External: N2YO · Heavens-Above · Gunter

§ Orbital elements

Epoch: 2026-09-20T12:31:33.588192Z

Period
93.94 min
Inclination
42.9930°
Eccentricity
0.0017758
Mean motion
15.32943200 rev/d
Perigee alt
454.9 km
Apogee alt
479.2 km
Semi-major
6,845.2 km
B*
1.2206e-3
RAAN
345.1329°
Arg perigee
359.3689°
Mean anomaly
0.7139°
Rev number
17,359

§ Raw data

STARLINK-302271 57505U 23113L   26263.52191653  .00039789  00000+0  12206-2 0  99912 57505  42.9930 345.1329 0017758 359.3689   0.7139 15.32943200173593

JSON: /api/v1/satellites/57505 · /tle

For live sub-satellite position, see the globe view (requires WebGL).

§ Visibility from observer

Set your observer location to see the next 7 days of passes ≥ 10°. The values pass through the URL so the page stays shareable.

No JS? Fill the form by hand. The geolocation button needs JavaScript.